• Processing (Info)

  • MPEC 1999-G27 : 1999 GK4

    The following Minor Planet Electronic Circular may be linked-to from your own Web pages, but must not otherwise be redistributed electronically.

    A form allowing access to any MPEC is at the bottom of this page.


    Read MPEC 1999-G26 Read MPEC 1999-G28


    M.P.E.C. 1999-G27                                Issued 1999 Apr. 14, 23:21 UT
    
         The Minor Planet Electronic Circulars contain information on unusual
             minor planets and routine data on comets.  They are published
       on behalf of Commission 20 of the International Astronomical Union by the
              Minor Planet Center, Smithsonian Astrophysical Observatory,
                              Cambridge, MA 02138, U.S.A.
    
                 BMARSDEN@CFA.HARVARD.EDU or GWILLIAMS@CFA.HARVARD.EDU
              URL http://cfa-www.harvard.edu/iau/mpc.html  ISSN 1523-6714
    
                                       1999 GK4
    
    Observations:
         J99G04K* C1999 04 11.36829 14 07 28.01 -05 11 29.8          17.1 R      699
         J99G04K  C1999 04 11.38867 14 07 26.60 -05 11 13.4                      699
         J99G04K  C1999 04 11.40906 14 07 25.25 -05 10 57.5                      699
         J99G04K  C1999 04 12.10567 14 06 40.93 -05 01 40.3          15.9 R      758
         J99G04K  C1999 04 12.11358 14 06 40.38 -05 01 33.5          16.1 R      758
         J99G04K  C1999 04 12.12076 14 06 39.91 -05 01 27.5          16.1 R      758
         J99G04K  C1999 04 12.21458 14 06 33.50 -05 00 11.0          16.5 R      732
         J99G04K  C1999 04 12.21942 14 06 33.15 -05 00 06.9          16.4 R      732
         J99G04K  C1999 04 12.22427 14 06 32.85 -05 00 02.9          16.4 R      732
         J99G04K  C1999 04 12.22772 14 06 31.98 -04 59 53.2          17.3 V      859
         J99G04K  C1999 04 12.23152 14 06 31.72 -04 59 50.4          17.3 V      859
         J99G04K  C1999 04 12.23632 14 06 31.38 -04 59 46.4          17.3 V      859
         J99G04K  C1999 04 12.30898 14 06 27.05 -04 58 58.0          18.0        704
         J99G04K  C1999 04 12.32627 14 06 25.80 -04 58 44.4                      704
         J99G04K  C1999 04 12.34034 14 06 24.91 -04 58 33.6                      719
         J99G04K  C1999 04 12.34337 14 06 24.64 -04 58 29.9                      704
         J99G04K  C1999 04 12.35215 14 06 24.04 -04 58 22.0                      719
         J99G04K  C1999 04 12.36051 14 06 23.44 -04 58 16.8          18.6        704
         J99G04K  C1999 04 12.37524 14 06 22.42 -04 58 04.1                      719
         J99G04K  C1999 04 12.37771 14 06 22.27 -04 58 03.3          18.4        704
         J99G04K  C1999 04 12.38066 14 06 22.09 -04 57 59.4                      719
         J99G04K  C1999 04 12.43675 14 06 18.15 -04 57 14.4                      719
         J99G04K  C1999 04 12.60023 14 06 07.66 -04 54 50.3          17.6 R      422
         J99G04K  C1999 04 12.60138 14 06 07.57 -04 54 49.7          17.6 R      422
         J99G04K  C1999 04 12.60436 14 06 07.38 -04 54 47.1          17.5 R      422
         J99G04K  C1999 04 12.60521 14 06 07.33 -04 54 46.5          17.6 R      422
         J99G04K  C1999 04 12.96789 14 05 43.04 -04 50 05.9                      557
         J99G04K  C1999 04 12.96987 14 05 42.95 -04 50 04.4                      557
         J99G04K  C1999 04 12.99052 14 05 41.45 -04 49 47.4                      118
         J99G04K  C1999 04 12.99241 14 05 41.32 -04 49 45.9                      118
         J99G04K  C1999 04 12.99402 14 05 41.20 -04 49 44.8          17.5 R      118
         J99G04K  C1999 04 13.11226 14 05 33.81 -04 48 04.1          16.1 R      758
         J99G04K  C1999 04 13.11793 14 05 33.42 -04 47 59.6          16.3 R      758
         J99G04K  C1999 04 13.12299 14 05 33.06 -04 47 55.1          16.2 R      758
         J99G04K  C1999 04 13.51255 14 05 06.27 -04 42 26.1          17.4 R      428
         J99G04K  C1999 04 13.51352 14 05 06.38 -04 42 24.0          16.5 R      426
         J99G04K  C1999 04 13.52065 14 05 05.90 -04 42 18.3          16.6 R      426
         J99G04K  C1999 04 13.52777 14 05 05.37 -04 42 12.6          16.5 R      426
         J99G04K  C1999 04 13.54652 14 05 03.84 -04 41 57.4          17.3 R      422
         J99G04K  C1999 04 13.54764 14 05 03.76 -04 41 56.5          17.2 R      422
         J99G04K  C1999 04 13.54904 14 05 03.66 -04 41 55.2          17.3 R      422
         J99G04K  C1999 04 13.89102 14 04 40.13 -04 37 27.2          16.8 R      587
         J99G04K  C1999 04 13.89803 14 04 39.63 -04 37 21.3                      587
         J99G04K  C1999 04 13.90272 14 04 39.28 -04 37 17.6                      587
         J99G04K  C1999 04 13.91211 14 04 38.59 -04 37 08.2                      108
         J99G04K  C1999 04 13.91692 14 04 38.30 -04 37 05.1                      108
         J99G04K  C1999 04 13.92161 14 04 37.92 -04 37 00.3          17.0 V      108
         J99G04K  C1999 04 13.99193 14 04 32.79 -04 36 04.1                      557
         J99G04K  C1999 04 13.99390 14 04 32.64 -04 36 02.5                      557
         J99G04K  C1999 04 13.99588 14 04 32.50 -04 36 00.9                      557
         J99G04K  C1999 04 14.07990 14 04 27.26 -04 34 48.5          16.1 R      758
         J99G04K  C1999 04 14.09095 14 04 26.46 -04 34 38.4          16.0 R      758
         J99G04K  C1999 04 14.09567 14 04 26.15 -04 34 31.7          15.9 R      758
         J99G04K  C1999 04 14.10300 14 04 25.58 -04 34 28.3          16.0 R      758
         J99G04K  C1999 04 14.15733 14 04 21.38 -04 33 32.0          16.6 R      844
         J99G04K  C1999 04 14.17939 14 04 19.67 -04 33 13.5          15.5 R      844
         J99G04K  C1999 04 14.59079 14 03 50.94 -04 27 31.3          16.5 R      426
         J99G04K  C1999 04 14.60106 14 03 50.13 -04 27 22.5          16.7 R      426
         J99G04K  C1999 04 14.60803 14 03 49.66 -04 27 17.2          17.0 R      426
         J99G04K  C1999 04 14.85631 14 03 32.23 -04 24 02.8          16.5 R      046
         J99G04K  C1999 04 14.85850 14 03 32.06 -04 24 00.8                      046
         J99G04K  C1999 04 14.86057 14 03 31.91 -04 23 59.1                      046
         J99G04K  C1999 04 14.86376 14 03 31.67 -04 23 56.4                      046
         J99G04K  C1999 04 14.86656 14 03 31.48 -04 23 54.1                      046
    
    Observer details:
    046 Klet.  Observers M. Tichy, Z. Moravec.  Measurer M. Tichy.
        0.57-m f/5.2 reflector + CCD.
    108 Montelupo.  Observers M. Tombelli, A. Boattini, L. Tesi, D. Guidetti,
        G. Forti, E. Masotti.  Measurers M. Tombelli, A. Boattini, L. Tesi,
        S. Bartolini, G. Forti.  0.30-m f/5.7 Schmidt-Cassegrain + CCD.
    118 Modra.  Observers A. Galad, D. Kalmancok.  0.6-m f/5.5 reflector + CCD.
    422 Loomberah.  Observer G. J. Garradd.  0.45-m f/5.4 reflector + CCD.
    426 Woomera.  Observer F. B. Zoltowski.  0.30-m f/3.3 Schmidt-Cassegrain + CCD.
    428 Reedy Creek.  Observer J. Broughton.  0.25-m f/6.3 Schmidt-Cassegrain
        + CCD.
    557 Ondrejov.  Observer L. Sarounova.  0.65-m f/3.6 reflector + CCD.
    587 Sormano.  Observers F. Manca, V. Giuliani.  0.5-m reflector + CCD.
    699 Lowell Observatory-LONEOS.  Observers C. A. Onken, B. A. Skiff.  Measurers
        B. W. Koehn, E. Bowell.  0.59-m LONEOS Schmidt + CCD.
    704 Lincoln Laboratory ETS, New Mexico.  Observers M. Blythe, F. Shelly,
        M. Bezpalko, M. Elowitz.  Measurers J. Stuart, H. Viggh, R. Sayer.  1.0-m
        f/2.15 reflector + CCD.
    719 Etscorn Observatory.  Observer D. A. Klinglesmith III.  0.355-m
        Schmidt-Cassegrain + CCD.
    732 Oaxaca.  Observer J. Roe.  0.25-m f/3.4 reflector + CCD.
    758 BCC Observatory, Cocoa.  Observer I. P. Griffin.  0.30-m f/5 Maksutov
        + CCD.
    844 Los Molinos.  Observers A. Sosa, M. Ortiz.  0.35-m f/6.4 reflector + CCD.
    859 Serra da Piedade.  Observers C. Jacques, J. Amancio.  0.3-m f/3.3
        Schimdt-Cassegrain + CCD.
    
    Orbital elements:
    1999 GK4                                                             PHA 0.038
    Epoch 1999 Apr. 12.0 TT = JDT 2451280.5                 Marsden
    M 309.16149              (2000.0)            P               Q
    n   0.35465639     Peri.  146.22725     +0.71397584     +0.69994963
    a   1.9766549      Node   169.29417     -0.66150275     +0.68256113
    e   0.4966147      Incl.    5.42992     -0.22946158     +0.21019233
    P   2.78           H   15.9           G   0.15
    From 63 observations 1999 Apr. 11-14.
    
